Hourly Data Report for January 31, 2017

All times are specified in Local Standard Time (LST). Add 1 hour to adjust for Daylight Saving Time where and when it is observed.

ST LEONARD CS
NEW BRUNSWICK

47°09'28.050" N
67°49'55.014" W
245.00 m
810I001
71019
WIY

Download Data

Hourly Data (January 2017)
Hourly Data Report for January 31, 2017
Temp Definition
°C
Dew Point Temp Definition
°C
Rel Hum Definition
%
Wind Dir Definition
10's deg

Wind Spd Definition
km/h
Visibility Definition
km
Stn Press Definition
kPa
Hmdx Definition


Wind Chill Definition


Weather Definition


TIME
00:00 -13.9 -14.8 93 28 6   97.67   -18 LegendNANA
01:00 -15.8 -16.8 92 26 7   97.67   -21 LegendNANA
02:00 -15.6 -16.2 95 25 6   97.69   -20 LegendNANA
03:00 -15.7 -16.6 92 30 6   97.74   -20 LegendNANA
04:00 -16.5 -17.6 91 31 6   97.76   -21 LegendNANA
05:00 -15.7 -16.8 91 30 5   97.81   -19 LegendNANA
06:00 -15.9 -17.0 91 30 4   97.82   -19 LegendNANA
07:00 -17.5 -18.7 91 27 5   97.89   -21 LegendNANA
08:00 -16.7 -17.9 90 29 5   97.94   -21 LegendNANA
09:00 -16.1 -17.3 90 2 5   97.96   -20 LegendNANA
10:00 -15.6 -17.2 87 27 8   98.03   -21 LegendNANA
11:00 -13.6 -16.0 82 28 10   98.05   -20 LegendNANA
12:00 -12.1 -17.3 65 30 12   98.08   -18 LegendNANA
13:00 -11.7 -16.6 67 28 15   98.08   -19 LegendNANA
14:00 -11.6 -16.0 70 27 11   98.05   -18 LegendNANA
15:00 -11.1 -15.8 68 28 9   98.04   -16 LegendNANA
16:00 -10.9 -16.0 66 36 2   98.05   -12 LegendNANA
17:00 -10.6 -15.8 66 17 4   98.08   -13 LegendNANA
18:00 -13.8 -15.9 84 14 5   98.13   -17 LegendNANA
19:00 -16.3 -17.5 90 13 7   98.16   -21 LegendNANA
20:00 -15.6 -16.7 92 14 8   98.19   -21 LegendNANA
21:00 -17.4 -18.5 91 14 8   98.18   -23 LegendNANA
22:00 -18.4 -19.4 92 11 5   98.16   -22 LegendNANA
23:00 -18.8 -19.9 91 14 4   98.15   -22 LegendNANA

Notes on Data Quality.

Legend

  • E = Estimated
  • M = Missing
  • NA = Not Available
  • ‡ = Partner data that is not subject to review by the National Climate Archives
Date modified: